Iron Mountain, MI

12:16 AM CDT on April 29, 2017 (GMT -0500)
Ford

Weather History for KIMT - March, 2013

Change the Weather History Date:

Friday, March 29, 2013

  Actual Average Record
Temperature  
Mean Temperature 32 °F -  
Max Temperature 51 °F 44 °F 75 °F (1946)
Min Temperature 16 °F 25 °F 0 °F (1970)
Degree Days  
Heating Degree Days 33    
Moisture  
Dew Point 16 °F    
Average Humidity 54    
Maximum Humidity 88    
Minimum Humidity 22    
Precipitation  
Precipitation 0.00 in - - ()
Sea Level Pressure  
Sea Level Pressure 30.26 in    
Wind  
Wind Speed 2 mph (East)    
Max Wind Speed 8 mph    
Max Gust Speed -    
Visibility 10 miles    
Events      
Averages and records for this station are not official NWS values.
T = Trace of Precipitation, MM = Missing Value Source: NWS Daily Summary

Daily Weather History Graph

Daily Weather History Graph

Search for Another Location

Airport or City:

Trip Planner

Search our weather history database for the weather conditions in past years. The results will help you decide how hot, cold, wet, or windy it might be!

Date:

Astronomy

Mar. 29, 2013 Rise Set
Actual Time 6:37 AM CDT 7:17 PM CDT
Civil Twilight 6:07 AM CDT 7:47 PM CDT
Nautical Twilight 5:32 AM CDT 8:23 PM CDT
Astronomical Twilight 4:55 AM CDT 9:00 PM CDT
Moon 10:28 PM CDT 7:37 AM CDT
Length of Visible Light 13h 39m
Length of Day
12h 39m
Waning Gibbous, 93% of the Moon is Illuminated
Mar 29
Waning Gibbous
Apr 2
Last Quarter
Apr 10
New
Apr 18
First Quarter
Apr 25
Full

Hourly Weather History & Observations

Time (CDT) Temp. Windchill Dew Point Humidity Pressure Visibility Wind Dir Wind Speed Gust Speed Precip Events Conditions
12:54 AM 23.0 °F - 17.1 °F 78% 30.29 in 10.0 mi Calm Calm - N/A   Clear
1:54 AM 19.9 °F - 15.1 °F 81% 30.29 in 10.0 mi Calm Calm - N/A   Clear
2:54 AM 21.0 °F 14.6 °F 16.0 °F 81% 30.30 in 10.0 mi North 4.6 mph - N/A   Clear
3:54 AM 19.0 °F - 16.0 °F 88% 30.30 in 10.0 mi Calm Calm - N/A   Clear
4:54 AM 19.0 °F - 16.0 °F 88% 30.30 in 10.0 mi Calm Calm - N/A   Clear
5:54 AM 16.0 °F - 12.9 °F 88% 30.31 in 10.0 mi Calm Calm - N/A   Clear
6:54 AM 16.0 °F 10.4 °F 12.9 °F 88% 30.32 in 10.0 mi NNW 3.5 mph - N/A   Clear
7:54 AM 19.9 °F - 16.0 °F 85% 30.32 in 10.0 mi Calm Calm - N/A   Clear
8:54 AM 28.9 °F - 19.0 °F 67% 30.32 in 10.0 mi Calm Calm - N/A   Clear
9:54 AM 37.0 °F 34.5 °F 19.0 °F 48% 30.32 in 10.0 mi West 3.5 mph - N/A   Clear
10:54 AM 39.9 °F - 18.0 °F 41% 30.30 in 10.0 mi Calm Calm - N/A   Clear
11:54 AM 44.1 °F - 14.0 °F 30% 30.29 in 10.0 mi Calm Calm - N/A   Clear
12:54 PM 45.0 °F 40.6 °F 16.0 °F 31% 30.27 in 10.0 mi North 8.1 mph - N/A   Clear
1:54 PM 46.0 °F 44.8 °F 12.9 °F 26% 30.26 in 10.0 mi South 3.5 mph - N/A   Clear
2:54 PM 48.9 °F - 12.0 °F 23% 30.24 in 10.0 mi Calm Calm - N/A   Clear
3:54 PM 48.0 °F - 10.9 °F 22% 30.22 in 10.0 mi Calm Calm - N/A   Clear
4:54 PM 48.9 °F - 12.0 °F 23% 30.20 in 10.0 mi Calm Calm - N/A   Clear
5:54 PM 48.9 °F - 12.9 °F 24% 30.20 in 10.0 mi East 3.5 mph - N/A   Clear
6:54 PM 46.0 °F 43.9 °F 14.0 °F 28% 30.19 in 10.0 mi East 4.6 mph - N/A   Clear
7:54 PM 39.9 °F 34.5 °F 17.1 °F 40% 30.19 in 10.0 mi ESE 8.1 mph - N/A   Clear
8:54 PM 37.9 °F 33.5 °F 19.9 °F 48% 30.19 in 10.0 mi SE 5.8 mph - N/A   Clear
9:54 PM 36.0 °F 31.1 °F 19.0 °F 50% 30.19 in 10.0 mi SSE 5.8 mph - N/A   Clear
10:54 PM 34.0 °F 31.0 °F 19.0 °F 54% 30.18 in 10.0 mi ESE 3.5 mph - N/A   Clear
11:54 PM 30.0 °F - 19.9 °F 66% 30.17 in 10.0 mi Calm Calm - N/A   Clear